COSMOS 1448

Satellite information

Favourite Embed

Satellite Type and Status

PAYLOADIN ORBIT

Key statistics

Satellite COSMOS 1448 at a glance.

Uptime

15501

Days in orbit

Revolutions

≈ 13.8

Per day

Orbit

LEO

Low Earth Orbit

Inclination

83.0

Latest

Satellite identification and parameters

Extended collection of information and parameters for COSMOS 1448.

Object identification

Identified? True

Debris? False

Object name: COSMOS 1448

International designator: 1983-023A

Object number (NORAD): 13949

Object ID (CCSDS): 13949

Country: COMMONWEALTH OF INDEPENDENT STATES (CIS)

Current information (Y/N): Y

RCS size: LARGE

Orbital parameters

Period: 104.643 minutes

Inclination: 82.9542 deg

SMA: 7355.87 km

Apoapsis: 999.232 km

Periapsis: 956.238 km

RAAN: 285.822 deg

Eccentricy: 0.00292247

Argument of periapsis: 201.2749 deg

Mean anomaly: 224.2501 deg

Mean motion: 13.7610533 rev/day

Mean motion (dot): 0.00000086 rev/day2

B* drag term: 0.000072635385 1/REarth

Two-line elements (TLE)

Creation date: Sept. 4, 2025, 10:13 a.m.

Reference frame: TEME

Reference center: EARTH

Epoch: Sept. 4, 2025, 4:51 a.m. UTC

TLE line 0: 0 COSMOS 1448

TLE line 1: 1 13949U 83023A 25247.20236639 .00000086 00000-0 72635-4 0 9994

TLE line 2: 2 13949 82.9542 285.8220 0029225 201.2749 224.2501 13.76105330130526

Live tracking on map

Real-time ground track for satellite COSMOS 1448.

In-orbit conjunctions

A list of the most updated potential collisions computed for object COSMOS 1448.

Target Orbit TCA Probability of collision Miss distance Type
COSMOS 1275 DEB LEO 2024-08-05 20:31:58 0.0003502648 392.0 (m) DEBRIS

Associated space launch

Navigation satellite providing location information for the Tsiklon-B navigation system

COSMOS 1448 was lifted into orbit during the mission ‘Kosmos-3M | Parus 37’, on board a Kosmos-3M space rocket.

The launch took place on March 30, 1983, 1:10 a.m. from 132/1 (132L).

For more information about the launch, click the button.

Launch to space Kosmos-3M | Parus 37
Kosmos-3M | Parus 37

Agency: N/A

Status: Launch Successful

Launch date: March 30, 1983, 1:10 a.m. UTC

Rocket: Kosmos-3M

Launch pad: 132/1 (132L)

Location: Plesetsk Cosmodrome, Russian Federation

...

Latest news about this satellite

There are no fresh news available about this satellite. Check back as we update our databases every day.


Newsletter sign-up

Weekly statistics, charts and insights to help you stay on top of the space industry.